When you browse on this site, cookies collect data to enhance your experience and personalize the content and advertising you see.
Visit our Privacy Policy to learn more. By continuing to use the site, you agree to this use of cookies and data.
  • In Hungary
  • List of Countries
  • For 7 days
  • Water Temperature
  • Weather Map
  • News
  • Weather Widgets
  • user-avatar
    Login

    Hourly Weather Serdobsk

    Today, 18 November, Monday

    Time Temperature Precipitation Wind Pressure Humidity
    00:00 -1°C° 0 mm 2 mps 756 mmHg 90%
    01:00 -1°C° 0 mm 2 mps 756 mmHg 90%
    02:00 +1°C° 0 mm 1 mps 756 mmHg 91%
    03:00 -1°C° 0 mm 2 mps 756 mmHg 90%
    04:00 -1°C° 0 mm 2 mps 756 mmHg 90%
    05:00 0°C° 0 mm 1 mps 756 mmHg 90%
    06:00 0°C° 0 mm 1 mps 755 mmHg 90%
    07:00 +1°C° 0 mm 1 mps 755 mmHg 89%
    08:00 +1°C° 0 mm 1 mps 755 mmHg 88%
    09:00 +1°C° 0 mm 1 mps 755 mmHg 86%
    10:00 +2°C° 0 mm 1 mps 755 mmHg 85%
    11:00 +1°C° 0 mm 2 mps 755 mmHg 83%
    12:00 +2°C° 0 mm 2 mps 755 mmHg 81%
    13:00 +2°C° 0 mm 2 mps 755 mmHg 82%
    14:00 +3°C° 0 mm 1 mps 755 mmHg 82%
    15:00 +3°C° 0 mm 1 mps 754 mmHg 83%
    16:00 +3°C° 0 mm 1 mps 754 mmHg 85%
    17:00 +3°C° 0 mm 1 mps 754 mmHg 86%
    18:00 +3°C° 0 mm 1 mps 754 mmHg 88%
    19:00 +3°C° 0 mm 1 mps 754 mmHg 88%
    20:00 +2°C° 0 mm 1 mps 754 mmHg 88%
    21:00 +2°C° 0 mm 1 mps 754 mmHg 88%
    22:00 +2°C° 0 mm 1 mps 754 mmHg 90%
    23:00 +2°C° 0 mm 1 mps 754 mmHg 91%

    Tomorrow, 19 November, Tuesday

    Time Temperature Precipitation Wind Pressure Humidity
    00:00 +1°C° 0 mm 1 mps 754 mmHg 92%
    01:00 +1°C° 0 mm 1 mps 754 mmHg 92%
    02:00 +1°C° 0 mm 1 mps 754 mmHg 92%
    03:00 +1°C° 0 mm 1 mps 754 mmHg 93%
    04:00 +1°C° 0 mm 1 mps 754 mmHg 93%
    05:00 +1°C° 0 mm 1 mps 754 mmHg 93%
    06:00 +1°C° 0 mm 1 mps 753 mmHg 93%
    07:00 +2°C° 0 mm 1 mps 754 mmHg 93%
    08:00 +2°C° 0 mm 1 mps 754 mmHg 92%
    09:00 +2°C° 0 mm 2 mps 754 mmHg 91%
    10:00 +2°C° 0 mm 2 mps 754 mmHg 91%
    11:00 +3°C° 0 mm 2 mps 754 mmHg 90%
    12:00 +4°C° 0 mm 2 mps 754 mmHg 90%
    13:00 +4°C° 0 mm 2 mps 754 mmHg 90%
    14:00 +4°C° 0 mm 2 mps 754 mmHg 91%
    15:00 +4°C° 0 mm 2 mps 754 mmHg 91%
    16:00 +4°C° 0 mm 2 mps 754 mmHg 92%
    17:00 +3°C° 0 mm 2 mps 754 mmHg 93%
    18:00 +2°C° 0 mm 3 mps 754 mmHg 93%
    19:00 +2°C° 0 mm 3 mps 755 mmHg 93%
    20:00 +2°C° 0 mm 3 mps 755 mmHg 92%
    21:00 +1°C° 0 mm 4 mps 755 mmHg 92%
    22:00 +1°C° 0 mm 4 mps 756 mmHg 89%
    23:00 +1°C° 0 mm 4 mps 756 mmHg 86%

    Day after tomorrow, 20 November, Wednesday

    Time Temperature Precipitation Wind Pressure Humidity
    00:00 0°C° 0 mm 4 mps 756 mmHg 83%
    01:00 0°C° 0 mm 5 mps 757 mmHg 83%
    02:00 -1°C° 0 mm 5 mps 757 mmHg 82%
    03:00 -2°C° 0 mm 6 mps 758 mmHg 82%
    04:00 -2°C° 0 mm 5 mps 758 mmHg 79%
    05:00 -5°C° 0 mm 5 mps 758 mmHg 76%
    06:00 -6°C° 0 mm 5 mps 758 mmHg 72%
    07:00 -6°C° 0 mm 5 mps 759 mmHg 64%
    08:00 -6°C° 0 mm 5 mps 760 mmHg 56%
    09:00 -6°C° 0 mm 5 mps 760 mmHg 47%
    10:00 -6°C° 0 mm 5 mps 761 mmHg 44%
    11:00 -6°C° 0 mm 5 mps 761 mmHg 40%
    12:00 -6°C° 0 mm 5 mps 761 mmHg 37%
    13:00 -6°C° 0 mm 5 mps 761 mmHg 38%
    14:00 -6°C° 0 mm 5 mps 762 mmHg 39%
    15:00 -6°C° 0 mm 5 mps 762 mmHg 40%
    16:00 -7°C° 0 mm 5 mps 762 mmHg 42%
    17:00 -7°C° 0 mm 5 mps 762 mmHg 44%
    18:00 -8°C° 0 mm 5 mps 763 mmHg 46%
    19:00 -8°C° 0 mm 5 mps 763 mmHg 47%
    20:00 -8°C° 0 mm 5 mps 764 mmHg 48%
    21:00 -10°C° 0 mm 5 mps 764 mmHg 49%
    22:00 -10°C° 0 mm 5 mps 764 mmHg 52%
    23:00 -10°C° 0 mm 5 mps 765 mmHg 54%

    21 November, Thursday

    Time Temperature Precipitation Wind Pressure Humidity
    00:00 -10°C° 0 mm 4 mps 765 mmHg 56%
    01:00 -10°C° 0 mm 4 mps 765 mmHg 55%
    02:00 -10°C° 0 mm 4 mps 765 mmHg 55%
    03:00 -10°C° 0 mm 4 mps 766 mmHg 54%
    04:00 -11°C° 0 mm 4 mps 766 mmHg 53%
    05:00 -11°C° 0 mm 4 mps 766 mmHg 52%
    06:00 -11°C° 0 mm 4 mps 766 mmHg 51%
    07:00 -11°C° 0 mm 4 mps 766 mmHg 51%
    08:00 -11°C° 0 mm 4 mps 766 mmHg 51%
    09:00 -11°C° 0 mm 4 mps 767 mmHg 50%
    10:00 -9°C° 0 mm 3 mps 767 mmHg 47%
    11:00 -8°C° 0 mm 3 mps 767 mmHg 43%
    12:00 -8°C° 0 mm 3 mps 767 mmHg 40%
    13:00 -7°C° 0 mm 3 mps 767 mmHg 39%
    14:00 -7°C° 0 mm 3 mps 766 mmHg 38%
    15:00 -6°C° 0 mm 2 mps 766 mmHg 37%
    16:00 -6°C° 0 mm 2 mps 766 mmHg 39%
    17:00 -7°C° 0 mm 2 mps 766 mmHg 41%
    18:00 -7°C° 0 mm 2 mps 766 mmHg 44%
    19:00 -8°C° 0 mm 2 mps 766 mmHg 44%
    20:00 -8°C° 0 mm 2 mps 766 mmHg 45%
    21:00 -8°C° 0 mm 2 mps 766 mmHg 45%
    22:00 -8°C° 0 mm 2 mps 766 mmHg 46%
    23:00 -7°C° 0 mm 1 mps 766 mmHg 46%

    22 November, Friday

    Time Temperature Precipitation Wind Pressure Humidity
    00:00 -7°C° 0 mm 1 mps 767 mmHg 47%
    01:00 -8°C° 0 mm 1 mps 766 mmHg 47%
    02:00 -8°C° 0 mm 1 mps 766 mmHg 47%
    03:00 -8°C° 0 mm 0 mps 766 mmHg 47%
    04:00 -8°C° 0 mm 0 mps 766 mmHg 47%
    05:00 -8°C° 0 mm 0 mps 766 mmHg 48%
    06:00 -8°C° 0 mm 0 mps 766 mmHg 48%
    07:00 -8°C° 0 mm 0 mps 766 mmHg 46%
    08:00 -7°C° 0 mm 0 mps 766 mmHg 45%
    09:00 -7°C° 0 mm 0 mps 766 mmHg 43%
    10:00 -6°C° 0 mm 0 mps 766 mmHg 40%
    11:00 -5°C° 0 mm 0 mps 766 mmHg 37%
    12:00 -4°C° 0 mm 0 mps 766 mmHg 34%
    13:00 -4°C° 0 mm 0 mps 765 mmHg 34%
    14:00 -4°C° 0 mm 0 mps 765 mmHg 34%
    15:00 -4°C° 0 mm 0 mps 764 mmHg 34%
    16:00 -4°C° 0 mm 0 mps 764 mmHg 36%
    17:00 -5°C° 0 mm 0 mps 764 mmHg 38%
    18:00 -5°C° 0 mm 0 mps 764 mmHg 40%
    19:00 -5°C° 0 mm 0 mps 763 mmHg 40%
    20:00 -6°C° 0 mm 0 mps 763 mmHg 41%
    21:00 -6°C° 0 mm 0 mps 763 mmHg 41%
    22:00 -6°C° 0 mm 0 mps 763 mmHg 41%
    23:00 -6°C° 0 mm 0 mps 763 mmHg 41%

    23 November, Saturday

    Time Temperature Precipitation Wind Pressure Humidity
    00:00 -6°C° 0 mm 0 mps 763 mmHg 42%
    01:00 -6°C° 0 mm 0 mps 762 mmHg 42%
    02:00 -6°C° 0 mm 1 mps 762 mmHg 42%
    03:00 -6°C° 0 mm 1 mps 762 mmHg 42%
    04:00 -7°C° 0 mm 1 mps 762 mmHg 42%
    05:00 -7°C° 0 mm 1 mps 762 mmHg 42%
    06:00 -7°C° 0 mm 1 mps 762 mmHg 42%
    07:00 -7°C° 0 mm 1 mps 761 mmHg 41%
    08:00 -6°C° 0 mm 1 mps 761 mmHg 40%
    09:00 -6°C° 0 mm 1 mps 761 mmHg 39%
    10:00 -4°C° 0 mm 1 mps 761 mmHg 36%
    11:00 -3°C° 0 mm 1 mps 761 mmHg 33%
    12:00 -2°C° 0 mm 1 mps 761 mmHg 29%
    13:00 -2°C° 0 mm 1 mps 761 mmHg 30%
    14:00 -2°C° 0 mm 1 mps 760 mmHg 31%
    15:00 -2°C° 0 mm 1 mps 760 mmHg 32%
    16:00 -2°C° 0 mm 1 mps 760 mmHg 33%
    17:00 -3°C° 0 mm 1 mps 760 mmHg 35%
    18:00 -4°C° 0 mm 1 mps 760 mmHg 36%
    19:00 -4°C° 0 mm 1 mps 759 mmHg 37%
    20:00 -4°C° 0 mm 1 mps 759 mmHg 37%
    21:00 -4°C° 0 mm 1 mps 759 mmHg 37%
    22:00 -4°C° 0 mm 1 mps 759 mmHg 37%
    23:00 -4°C° 0 mm 1 mps 759 mmHg 37%
    Show more